Weather History for Binghamton, NY

Change the Weather History Date:

Monday, December 23, 2013

  Actual Average Record
Temperature  
Mean Temperature 36 °F 25 °F  
Max Temperature 44 °F 31 °F 59 °F (1990)
Min Temperature 27 °F 19 °F -6 °F (1989)
Degree Days  
Heating Degree Days 29 40  
Month to date heating degree days 821 841  
Since 1 July heating degree days 2412 2416  
Cooling Degree Days 0 0  
Month to date cooling degree days 0 0  
Year to date cooling degree days 480 381  
Moisture  
Dew Point 37 °F    
Average Humidity 82    
Maximum Humidity 100    
Minimum Humidity 63    
Precipitation  
Precipitation 0.10 in 0.09 in 0.72 in (2007)
Month to date precipitation 2.14 2.18  
Year to date precipitation 41.65 38.65  
Snow  
Snow T in 0.70 in 6.30 in (1982)
Month to date snowfall 16.2 12.7  
Since 1 July snowfall 24.4 19.5  
Snow Depth 0.00 in    
Sea Level Pressure  
Sea Level Pressure 30.01 in    
Wind  
Wind Speed 6 mph (NNW)    
Max Wind Speed 18 mph    
Max Gust Speed 24 mph    
Visibility 4 miles    
Events Fog , Rain    
T = Trace of Precipitation, MM = Missing Value Source: NWS Daily Summary

Daily Weather History Graph

Daily Weather History Graph

Search for Another Location

Airport:

Trip Planner

Search our weather history database for the weather conditions in past years. The results will help you decide how hot, cold, wet, or windy it might be!

Date:

Astronomy

Dec. 23, 2013 Rise Set
Actual Time 7:30 AM EST 4:36 PM EST
Civil Twilight 6:58 AM EST 5:07 PM EST
Nautical Twilight 6:23 AM EST 5:43 PM EST
Astronomical Twilight 5:48 AM EST 6:17 PM EST
Moon 10:50 PM EST (12/23) 10:48 AM EST (12/23)
Length of Visible Light 10h 09m
Length of Day
9h 05m
Waning Gibbous, 68% of the Moon is Illuminated
Dec 23
Waning Gibbous
Dec 25
Last Quarter
Jan 1
New
Jan 7
First Quarter
Jan 15
Full

Hourly Weather History & Observations

Time (EST) Temp. Windchill Dew Point Humidity Pressure Visibility Wind Dir Wind Speed Gust Speed Precip Events Conditions
12:30 AM 42.8 °F 37.0 °F 42.8 °F 100% 29.93 in 2.5 mi North 10.4 mph - N/A   Overcast
12:48 AM 42.8 °F 39.3 °F 42.8 °F 100% 29.93 in 3.0 mi NNE 5.8 mph - N/A   Overcast
12:53 AM 43.0 °F 40.3 °F 42.1 °F 97% 29.93 in 4.0 mi NNE 4.6 mph - N/A   Overcast
1:53 AM 42.1 °F 37.1 °F 42.1 °F 100% 29.95 in 3.0 mi North 8.1 mph - N/A   Overcast
2:53 AM 41.0 °F 38.0 °F 41.0 °F 100% 29.96 in 4.0 mi NE 4.6 mph - N/A   Overcast
3:53 AM 41.0 °F 38.0 °F 39.9 °F 96% 29.97 in 6.0 mi NNE 4.6 mph - 0.00 in Rain Light Rain
4:26 AM 41.0 °F 35.8 °F 39.2 °F 93% 29.94 in 5.0 mi North 8.1 mph - 0.00 in Rain Light Rain
4:53 AM 41.0 °F 36.4 °F 39.9 °F 96% 29.97 in 5.0 mi North 6.9 mph - 0.00 in   Overcast
5:19 AM 41.0 °F 36.4 °F 39.2 °F 93% 29.93 in 5.0 mi NE 6.9 mph - N/A   Overcast
5:45 AM 41.0 °F - 39.2 °F 93% 29.95 in 4.0 mi Calm Calm - N/A   Overcast
5:53 AM 41.0 °F 39.0 °F 41.0 °F 100% 29.96 in 5.0 mi East 3.5 mph - N/A   Overcast
6:16 AM 41.0 °F 38.0 °F 39.2 °F 93% 29.95 in 4.0 mi East 4.6 mph - N/A   Overcast
6:27 AM 41.0 °F 39.0 °F 41.0 °F 100% 29.96 in 3.0 mi ESE 3.5 mph - N/A   Overcast
6:40 AM 41.0 °F - 41.0 °F 100% 29.96 in 2.0 mi Calm Calm - 0.00 in Rain Light Rain
6:53 AM 41.0 °F 39.0 °F 41.0 °F 100% 29.97 in 1.8 mi SE 3.5 mph - 0.00 in Rain Light Rain
7:22 AM 41.0 °F - 41.0 °F 100% 29.97 in 0.8 mi Calm Calm - 0.01 in Rain Light Rain
7:53 AM 41.0 °F - 41.0 °F 100% 29.97 in 1.0 mi Calm Calm - 0.01 in   Overcast
8:02 AM 41.0 °F - 41.0 °F 100% 29.97 in 0.8 mi Calm Calm - 0.01 in   Overcast
8:27 AM 41.0 °F - 41.0 °F 100% 29.96 in 0.2 mi Calm Calm - 0.01 in Fog , Rain Light Rain
8:39 AM 41.0 °F - 41.0 °F 100% 29.96 in 0.2 mi Calm Calm - 0.02 in Fog , Rain Light Rain
8:41 AM 42.8 °F - 41.0 °F 93% 29.96 in 0.5 mi Calm Calm - 0.02 in Fog , Rain Light Rain
8:53 AM 42.1 °F - 41.0 °F 96% 29.98 in 1.0 mi Calm Calm - 0.02 in Rain Light Rain
8:58 AM 42.8 °F - 41.0 °F 93% 29.95 in 0.8 mi Calm Calm - 0.00 in Rain Light Rain
9:03 AM 42.8 °F - 41.0 °F 93% 29.96 in 1.0 mi Calm Calm - 0.01 in Rain Light Rain
9:19 AM 42.8 °F - 42.8 °F 100% 29.96 in 2.0 mi Calm Calm - 0.01 in Rain Light Rain
9:29 AM 42.8 °F - 41.0 °F 93% 29.97 in 1.8 mi Calm Calm - 0.01 in Rain Light Rain
9:38 AM 42.8 °F - 42.8 °F 100% 29.97 in 2.0 mi Calm Calm - 0.02 in Rain Light Rain
9:49 AM 42.8 °F - 42.8 °F 100% 29.98 in 3.0 mi Calm Calm - 0.02 in Rain Light Rain
9:53 AM 43.0 °F - 42.1 °F 97% 30.00 in 4.0 mi Calm Calm - 0.02 in Rain Light Rain
10:08 AM 42.8 °F - 42.8 °F 100% 29.97 in 4.0 mi Calm Calm - 0.00 in Rain Light Rain
10:15 AM 42.8 °F - 42.8 °F 100% 29.97 in 2.0 mi Calm Calm - 0.01 in Rain Light Rain
10:25 AM 42.8 °F 41.1 °F 41.0 °F 93% 29.98 in 2.0 mi NW 3.5 mph - 0.01 in Rain Light Rain
10:36 AM 42.8 °F 41.1 °F 42.8 °F 100% 29.98 in 0.8 mi NW 3.5 mph - 0.02 in Rain Light Rain
10:43 AM 42.8 °F 41.1 °F 41.0 °F 93% 29.98 in 0.2 mi WNW 3.5 mph - 0.02 in Fog , Rain Light Rain
10:53 AM 42.1 °F - 42.1 °F 100% 30.01 in 0.2 mi Calm Calm - 0.02 in Fog Fog
11:06 AM 42.8 °F - 42.8 °F 100% 29.97 in 1.0 mi Calm Calm - N/A   Mist
11:21 AM 42.8 °F - 42.8 °F 100% 29.98 in 0.2 mi Calm Calm - 0.00 in Fog , Rain Light Rain
11:45 AM 42.8 °F 41.1 °F 42.8 °F 100% 29.98 in 0.5 mi WNW 3.5 mph - 0.01 in Fog , Rain Light Rain
11:53 AM 42.1 °F 39.2 °F 41.0 °F 96% 30.01 in 0.2 mi WNW 4.6 mph - 0.01 in Fog , Rain Light Rain
12:26 PM 42.8 °F 39.3 °F 41.0 °F 93% 29.97 in 1.0 mi NW 5.8 mph - 0.01 in Rain Light Rain
12:32 PM 42.8 °F 40.1 °F 42.8 °F 100% 29.98 in 3.0 mi NW 4.6 mph - 0.01 in Rain Light Rain
12:40 PM 42.8 °F 39.3 °F 42.8 °F 100% 29.97 in 1.5 mi NW 5.8 mph - 0.02 in Rain Light Rain
12:50 PM 42.8 °F 38.6 °F 41.0 °F 93% 29.97 in 4.0 mi NNW 6.9 mph - 0.02 in Rain Light Rain
12:53 PM 41.0 °F 36.4 °F 41.0 °F 100% 30.00 in 6.0 mi NNW 6.9 mph - 0.02 in Rain Light Rain
1:08 PM 42.8 °F 39.3 °F 41.0 °F 93% 29.97 in 7.0 mi NW 5.8 mph - 0.00 in Rain Light Rain
1:28 PM 39.2 °F 31.6 °F 39.2 °F 100% 29.97 in 5.0 mi NW 12.7 mph 18.4 mph 0.00 in Rain Light Rain
1:53 PM 37.9 °F 30.0 °F 37.0 °F 97% 30.03 in 6.0 mi NW 12.7 mph - 0.00 in Rain Light Rain
2:19 PM 35.6 °F 25.9 °F 35.6 °F 100% 30.01 in 10.0 mi NNW 16.1 mph - 0.00 in   Overcast
2:53 PM 35.1 °F 27.4 °F 34.0 °F 96% 30.06 in 3.0 mi NNW 10.4 mph - 0.00 in   Overcast
3:01 PM 35.6 °F 28.6 °F 33.8 °F 93% 30.03 in 2.5 mi NNW 9.2 mph - N/A   Overcast
3:37 PM 33.8 °F 26.4 °F 33.8 °F 100% 30.05 in 1.8 mi NNW 9.2 mph - 0.00 in Rain Light Rain
3:53 PM 34.0 °F 27.2 °F 33.1 °F 96% 30.11 in 1.8 mi NNW 8.1 mph - 0.00 in Rain Light Rain
3:55 PM 33.8 °F 25.3 °F 33.8 °F 100% 30.07 in 3.0 mi NW 11.5 mph 17.3 mph 0.00 in Rain Light Rain
4:53 PM 34.0 °F 26.0 °F 32.0 °F 92% 30.14 in 10.0 mi NW 10.4 mph - 0.00 in   Overcast
5:00 PM 33.8 °F 25.3 °F 30.2 °F 87% 30.10 in 10.0 mi NW 11.5 mph 18.4 mph N/A   Overcast
5:11 PM 33.8 °F 25.3 °F 30.2 °F 87% 30.10 in 10.0 mi NW 11.5 mph 19.6 mph N/A   Overcast
5:53 PM 33.1 °F 25.5 °F 28.9 °F 85% 30.17 in 10.0 mi NW 9.2 mph - N/A   Overcast
6:41 PM 32.0 °F 22.5 °F 26.6 °F 80% 30.12 in 10.0 mi WNW 12.7 mph 19.6 mph N/A   Overcast
6:53 PM 32.0 °F 22.5 °F 25.0 °F 75% 30.17 in 10.0 mi NW 12.7 mph 19.6 mph N/A   Overcast
7:53 PM 30.9 °F 21.2 °F 21.9 °F 69% 30.18 in 10.0 mi NW 12.7 mph - N/A   Overcast
8:53 PM 30.0 °F 19.5 °F 19.9 °F 66% 30.19 in 10.0 mi NW 13.8 mph 19.6 mph N/A   Overcast
9:53 PM 28.9 °F 19.2 °F 19.0 °F 67% 30.20 in 10.0 mi NW 11.5 mph 19.6 mph N/A   Overcast
10:33 PM 28.4 °F 19.1 °F 19.4 °F 69% 30.16 in 10.0 mi NNW 10.4 mph - N/A   Overcast
10:53 PM 28.0 °F 18.6 °F 19.9 °F 72% 30.20 in 10.0 mi NNW 10.4 mph 18.4 mph N/A   Overcast
11:20 PM 28.4 °F 19.7 °F 19.4 °F 69% 30.15 in 10.0 mi NNW 9.2 mph - N/A   Mostly Cloudy
11:53 PM 27.0 °F 21.6 °F 19.0 °F 72% 30.20 in 10.0 mi NW 4.6 mph - N/A   Partly Cloudy